Time,TemperatureF,DewpointF,PressureIn,WindDirection,WindDirectionDegrees,WindSpeedMPH,WindSpeedGustMPH,Humidity,HourlyPrecipIn,Conditions,Clouds,dailyrainin,SoftwareType,DateUTC
2013-01-09 00:05:00,37.2,29.3,29.86,South,174,5.0,15.0,73,0.00,,,0.17,Wunderground v.1.13,2013-01-09 06:05:00,
2013-01-09 00:15:00,37.6,29.0,29.86,SSW,194,6.0,6.0,71,0.00,,,0.17,Wunderground v.1.13,2013-01-09 06:15:00,
2013-01-09 00:25:00,37.8,29.2,29.86,SSE,165,8.0,15.0,71,0.00,,,0.18,Wunderground v.1.13,2013-01-09 06:25:00,
2013-01-09 00:30:00,37.9,29.0,29.86,SSW,192,7.0,15.0,70,0.00,,,0.18,Wunderground v.1.13,2013-01-09 06:30:00,
2013-01-09 00:40:00,38.0,29.1,29.86,South,190,7.0,20.0,70,0.00,,,0.18,Wunderground v.1.13,2013-01-09 06:40:00,
2013-01-09 00:45:00,38.2,29.3,29.86,SW,219,9.0,20.0,70,0.00,,,0.19,Wunderground v.1.13,2013-01-09 06:45:00,
2013-01-09 00:50:00,38.2,29.6,29.85,South,186,7.0,7.0,71,0.00,,,0.19,Wunderground v.1.13,2013-01-09 06:50:00,
2013-01-09 01:00:00,37.9,29.3,29.85,SSE,161,6.0,6.0,71,0.00,,,0.19,Wunderground v.1.13,2013-01-09 07:00:00,
2013-01-09 01:05:00,37.9,29.7,29.85,SW,222,5.0,21.0,72,0.00,,,0.20,Wunderground v.1.13,2013-01-09 07:05:00,
2013-01-09 01:15:00,37.9,29.7,29.85,SSW,201,4.0,4.0,72,0.00,,,0.20,Wunderground v.1.13,2013-01-09 07:15:00,
2013-01-09 01:20:00,37.9,29.7,29.86,South,189,4.0,4.0,72,0.00,,,0.20,Wunderground v.1.13,2013-01-09 07:20:00,
2013-01-09 01:25:00,37.9,29.7,29.86,South,177,3.0,21.0,72,0.00,,,0.21,Wunderground v.1.13,2013-01-09 07:25:00,
2013-01-09 01:35:00,37.8,29.9,29.86,SSW,197,5.0,5.0,73,0.00,,,0.21,Wunderground v.1.13,2013-01-09 07:35:00,
2013-01-09 01:40:00,37.6,30.1,29.86,SW,229,3.0,15.0,74,0.00,,,0.21,Wunderground v.1.13,2013-01-09 07:40:00,
2013-01-09 01:45:00,37.5,30.0,29.86,SSW,213,3.0,3.0,74,0.00,,,0.21,Wunderground v.1.13,2013-01-09 07:45:00,
2013-01-09 01:50:00,37.3,29.8,29.88,SSW,195,3.0,3.0,74,0.00,,,0.22,Wunderground v.1.13,2013-01-09 07:50:00,
2013-01-09 01:55:00,37.2,30.0,29.88,South,189,3.0,3.0,75,0.00,,,0.22,Wunderground v.1.13,2013-01-09 07:55:00,
2013-01-09 02:00:00,36.9,29.7,29.88,SSW,194,2.0,15.0,75,0.00,,,0.22,Wunderground v.1.13,2013-01-09 08:00:00,
2013-01-09 02:05:00,36.9,30.0,29.88,SSW,192,2.0,2.0,76,0.00,,,0.22,Wunderground v.1.13,2013-01-09 08:05:00,
2013-01-09 02:15:00,36.8,29.9,29.88,SSW,213,3.0,20.0,76,0.00,,,0.22,Wunderground v.1.13,2013-01-09 08:15:00,
2013-01-09 02:25:00,36.6,29.7,29.89,SW,236,3.0,3.0,76,0.00,,,0.23,Wunderground v.1.13,2013-01-09 08:25:00,
2013-01-09 02:30:00,36.5,29.7,29.89,South,176,2.0,2.0,76,0.00,,,0.23,Wunderground v.1.13,2013-01-09 08:30:00,
2013-01-09 02:35:00,36.5,30.0,29.89,WSW,242,2.0,20.0,77,0.00,,,0.23,Wunderground v.1.13,2013-01-09 08:35:00,
2013-01-09 02:40:00,36.5,30.0,29.89,SSE,160,3.0,20.0,77,0.00,,,0.23,Wunderground v.1.13,2013-01-09 08:40:00,
2013-01-09 02:45:00,36.3,29.8,29.89,SW,234,3.0,3.0,77,0.00,,,0.23,Wunderground v.1.13,2013-01-09 08:45:00,
2013-01-09 02:50:00,36.2,29.7,29.89,SW,233,1.0,1.0,77,0.00,,,0.23,Wunderground v.1.13,2013-01-09 08:50:00,
2013-01-09 02:55:00,36.0,29.5,29.89,SW,219,1.0,1.0,77,0.00,,,0.23,Wunderground v.1.13,2013-01-09 08:55:00,
2013-01-09 03:05:00,35.6,29.4,29.90,WSW,252,2.0,10.0,78,0.00,,,0.23,Wunderground v.1.13,2013-01-09 09:05:00,
2013-01-09 03:15:00,35.3,29.4,29.90,SW,229,2.0,2.0,79,0.00,,,0.23,Wunderground v.1.13,2013-01-09 09:15:00,
2013-01-09 03:25:00,35.0,29.1,29.90,WSW,252,3.0,3.0,79,0.00,,,0.23,Wunderground v.1.13,2013-01-09 09:25:00,
2013-01-09 03:35:00,34.9,29.0,29.91,West,261,4.0,10.0,79,0.00,,,0.23,Wunderground v.1.13,2013-01-09 09:35:00,
2013-01-09 03:45:00,34.7,28.9,29.91,West,265,5.0,10.0,79,0.00,,,0.23,Wunderground v.1.13,2013-01-09 09:45:00,
2013-01-09 03:50:00,34.6,28.8,29.92,West,264,6.0,6.0,79,0.00,,,0.23,Wunderground v.1.13,2013-01-09 09:50:00,
2013-01-09 03:55:00,34.6,28.8,29.92,West,277,6.0,10.0,79,0.00,,,0.23,Wunderground v.1.13,2013-01-09 09:55:00,
2013-01-09 04:00:00,34.4,28.6,29.92,West,261,6.0,10.0,79,0.00,,,0.23,Wunderground v.1.13,2013-01-09 10:00:00,
2013-01-09 04:05:00,34.3,28.5,29.93,West,271,6.0,6.0,79,0.00,,,0.23,Wunderground v.1.13,2013-01-09 10:05:00,
2013-01-09 04:15:00,33.8,28.3,29.93,West,263,4.0,13.0,80,0.00,,,0.23,Wunderground v.1.13,2013-01-09 10:15:00,
2013-01-09 04:25:00,33.7,28.2,29.94,WSW,252,6.0,6.0,80,0.00,,,0.23,Wunderground v.1.13,2013-01-09 10:25:00,
2013-01-09 04:35:00,33.4,27.9,29.95,WSW,254,6.0,13.0,80,0.00,,,0.23,Wunderground v.1.13,2013-01-09 10:35:00,
2013-01-09 04:40:00,33.2,27.7,29.95,WSW,254,6.0,13.0,80,0.00,,,0.23,Wunderground v.1.13,2013-01-09 10:40:00,
2013-01-09 04:45:00,33.1,27.6,29.95,West,266,5.0,5.0,80,0.00,,,0.23,Wunderground v.1.13,2013-01-09 10:45:00,
2013-01-09 04:55:00,32.8,27.3,29.97,WSW,247,5.0,13.0,80,0.00,,,0.23,Wunderground v.1.13,2013-01-09 10:55:00,
2013-01-09 05:00:00,32.7,27.2,29.97,WSW,255,5.0,5.0,80,0.00,,,0.23,Wunderground v.1.13,2013-01-09 11:00:00,
2013-01-09 05:05:00,32.7,27.2,29.98,West,263,5.0,5.0,80,0.00,,,0.00,Wunderground v.1.13,2013-01-09 11:05:00,
2013-01-09 05:15:00,32.4,27.2,29.98,WSW,252,4.0,12.0,81,0.00,,,0.00,Wunderground v.1.13,2013-01-09 11:15:00,
2013-01-09 05:25:00,32.1,26.9,29.98,SW,226,3.0,12.0,81,0.00,,,0.00,Wunderground v.1.13,2013-01-09 11:25:00,
2013-01-09 05:30:00,31.9,26.7,29.98,SSW,205,2.0,12.0,81,0.00,,,0.00,Wunderground v.1.13,2013-01-09 11:30:00,
2013-01-09 05:40:00,31.6,26.4,29.99,WSW,240,2.0,2.0,81,0.00,,,0.00,Wunderground v.1.13,2013-01-09 11:40:00,
2013-01-09 05:50:00,31.5,26.3,29.99,SW,215,1.0,10.0,81,0.00,,,0.00,Wunderground v.1.13,2013-01-09 11:50:00,
2013-01-09 06:00:00,31.3,26.4,29.99,SW,225,1.0,10.0,82,0.00,,,0.00,Wunderground v.1.13,2013-01-09 12:00:00,
2013-01-09 06:05:00,31.3,26.4,30.00,WSW,240,1.0,1.0,82,0.00,,,0.00,Wunderground v.1.13,2013-01-09 12:05:00,
2013-01-09 06:10:00,31.2,26.3,30.00,WSW,252,2.0,2.0,82,0.00,,,0.00,Wunderground v.1.13,2013-01-09 12:10:00,
2013-01-09 06:20:00,30.9,26.1,30.01,SW,218,0.0,11.0,82,0.00,,,0.00,Wunderground v.1.13,2013-01-09 12:20:00,
2013-01-09 06:30:00,30.6,25.8,30.01,SW,219,1.0,1.0,82,0.00,,,0.00,Wunderground v.1.13,2013-01-09 12:30:00,
2013-01-09 06:35:00,30.4,25.6,30.02,South,187,1.0,8.0,82,0.00,,,0.00,Wunderground v.1.13,2013-01-09 12:35:00,
2013-01-09 06:45:00,30.3,25.5,30.02,SSW,207,0.0,8.0,82,0.00,,,0.00,Wunderground v.1.13,2013-01-09 12:45:00,
2013-01-09 06:50:00,30.1,25.3,30.03,SW,234,1.0,1.0,82,0.00,,,0.00,Wunderground v.1.13,2013-01-09 12:50:00,
2013-01-09 06:55:00,30.0,25.2,30.03,SW,228,0.0,8.0,82,0.00,,,0.00,Wunderground v.1.13,2013-01-09 12:55:00,
2013-01-09 07:05:00,29.8,25.3,30.04,SW,227,0.0,7.0,83,0.00,,,0.00,Wunderground v.1.13,2013-01-09 13:05:00,
2013-01-09 07:15:00,29.7,24.9,30.04,SW,215,0.0,7.0,82,0.00,,,0.00,Wunderground v.1.13,2013-01-09 13:15:00,
2013-01-09 07:20:00,29.5,24.7,30.04,SW,215,0.0,7.0,82,0.00,,,0.00,Wunderground v.1.13,2013-01-09 13:20:00,
2013-01-09 07:25:00,29.4,24.6,30.04,SW,215,0.0,7.0,82,0.00,,,0.00,Wunderground v.1.13,2013-01-09 13:25:00,
2013-01-09 07:35:00,29.1,24.6,30.04,SW,230,0.0,5.0,83,0.00,,,0.00,Wunderground v.1.13,2013-01-09 13:35:00,
2013-01-09 07:45:00,29.1,24.6,30.04,SW,214,0.0,5.0,83,0.00,,,0.00,Wunderground v.1.13,2013-01-09 13:45:00,
2013-01-09 07:50:00,29.1,24.3,30.05,SW,214,0.0,5.0,82,0.00,,,0.00,Wunderground v.1.13,2013-01-09 13:50:00,
2013-01-09 07:55:00,29.3,24.5,30.05,SSW,209,0.0,5.0,82,0.00,,,0.00,Wunderground v.1.13,2013-01-09 13:55:00,
2013-01-09 08:05:00,29.7,24.6,30.05,SSW,210,1.0,1.0,81,0.00,,,0.00,Wunderground v.1.13,2013-01-09 14:05:00,
2013-01-09 08:15:00,30.1,24.7,30.05,WSW,244,1.0,1.0,80,0.00,,,0.00,Wunderground v.1.13,2013-01-09 14:15:00,
2013-01-09 08:25:00,30.6,24.9,30.05,SSW,203,2.0,7.0,79,0.00,,,0.00,Wunderground v.1.13,2013-01-09 14:25:00,
2013-01-09 08:30:00,30.7,24.7,30.05,SSW,211,2.0,2.0,78,0.00,,,0.00,Wunderground v.1.13,2013-01-09 14:30:00,
2013-01-09 08:35:00,31.0,24.9,30.06,SW,215,2.0,2.0,78,0.00,,,0.00,Wunderground v.1.13,2013-01-09 14:35:00,
2013-01-09 08:45:00,31.3,24.9,30.06,SW,220,1.0,9.0,77,0.00,,,0.00,Wunderground v.1.13,2013-01-09 14:45:00,
2013-01-09 08:55:00,31.6,25.2,30.08,South,183,2.0,9.0,77,0.00,,,0.00,Wunderground v.1.13,2013-01-09 14:55:00,
2013-01-09 09:00:00,31.9,25.2,30.08,South,175,3.0,9.0,76,0.00,,,0.00,Wunderground v.1.13,2013-01-09 15:00:00,
2013-01-09 09:05:00,32.1,25.4,30.08,South,179,4.0,13.0,76,0.00,,,0.00,Wunderground v.1.13,2013-01-09 15:05:00,
2013-01-09 09:15:00,32.4,25.4,30.08,SW,230,3.0,13.0,75,0.00,,,0.00,Wunderground v.1.13,2013-01-09 15:15:00,
2013-01-09 09:20:00,32.7,25.6,30.08,SSW,213,4.0,4.0,75,0.00,,,0.00,Wunderground v.1.13,2013-01-09 15:20:00,
2013-01-09 09:30:00,33.1,25.7,30.08,West,262,3.0,13.0,74,0.00,,,0.00,Wunderground v.1.13,2013-01-09 15:30:00,
2013-01-09 09:35:00,33.4,25.7,30.07,West,266,5.0,13.0,73,0.00,,,0.00,Wunderground v.1.13,2013-01-09 15:35:00,
2013-01-09 09:40:00,33.8,25.7,30.07,SSW,202,5.0,13.0,72,0.00,,,0.00,Wunderground v.1.13,2013-01-09 15:40:00,
2013-01-09 09:50:00,34.6,25.8,30.08,West,275,5.0,13.0,70,0.00,,,0.00,Wunderground v.1.13,2013-01-09 15:50:00,
2013-01-09 09:55:00,34.9,25.8,30.08,WSW,246,7.0,7.0,69,0.00,,,0.00,Wunderground v.1.13,2013-01-09 15:55:00,
2013-01-09 10:05:00,35.5,25.6,30.09,SW,221,5.0,15.0,67,0.00,,,0.00,Wunderground v.1.13,2013-01-09 16:05:00,
2013-01-09 10:15:00,36.0,25.4,30.09,WSW,246,6.0,15.0,65,0.00,,,0.00,Wunderground v.1.13,2013-01-09 16:15:00,
2013-01-09 10:20:00,36.3,24.9,30.11,WSW,254,7.0,15.0,63,0.00,,,0.00,Wunderground v.1.13,2013-01-09 16:20:00,
2013-01-09 10:30:00,36.8,25.0,30.11,West,269,7.0,15.0,62,0.00,,,0.00,Wunderground v.1.13,2013-01-09 16:30:00,
2013-01-09 10:35:00,36.9,24.7,30.10,West,261,8.0,15.0,61,0.00,,,0.01,Wunderground v.1.13,2013-01-09 16:35:00,
2013-01-09 10:45:00,37.2,24.6,30.10,WSW,252,8.0,8.0,60,0.00,,,0.01,Wunderground v.1.13,2013-01-09 16:45:00,
2013-01-09 10:55:00,37.3,24.3,30.10,NW,320,8.0,8.0,59,0.00,,,0.01,Wunderground v.1.13,2013-01-09 16:55:00,
2013-01-09 11:00:00,37.5,24.5,30.10,West,261,8.0,8.0,59,0.00,,,0.01,Wunderground v.1.13,2013-01-09 17:00:00,
2013-01-09 11:05:00,37.5,24.5,30.11,WSW,257,8.0,16.0,59,0.00,,,0.01,Wunderground v.1.13,2013-01-09 17:05:00,
2013-01-09 11:15:00,37.5,24.1,30.11,WSW,257,9.0,9.0,58,0.00,,,0.01,Wunderground v.1.13,2013-01-09 17:15:00,
2013-01-09 11:25:00,37.5,24.1,30.10,WNW,282,9.0,16.0,58,0.00,,,0.02,Wunderground v.1.13,2013-01-09 17:25:00,
2013-01-09 11:35:00,37.5,24.1,30.10,West,260,8.0,20.0,58,0.00,,,0.02,Wunderground v.1.13,2013-01-09 17:35:00,
2013-01-09 11:45:00,37.8,23.9,30.10,WSW,254,8.0,8.0,57,0.00,,,0.03,Wunderground v.1.13,2013-01-09 17:45:00,
2013-01-09 11:55:00,37.9,24.0,30.12,West,259,8.0,8.0,57,0.00,,,0.03,Wunderground v.1.13,2013-01-09 17:55:00,
2013-01-09 12:00:00,38.0,24.1,30.12,West,265,8.0,20.0,57,0.00,,,0.03,Wunderground v.1.13,2013-01-09 18:00:00,
2013-01-09 12:05:00,38.2,24.3,30.12,WSW,247,7.0,19.0,57,0.00,,,0.04,Wunderground v.1.13,2013-01-09 18:05:00,
2013-01-09 12:15:00,38.2,24.3,30.12,WSW,253,6.0,19.0,57,0.00,,,0.04,Wunderground v.1.13,2013-01-09 18:15:00,
2013-01-09 12:20:00,38.3,24.4,30.14,WSW,242,6.0,19.0,57,0.00,,,0.04,Wunderground v.1.13,2013-01-09 18:20:00,
2013-01-09 12:30:00,38.8,24.0,30.14,SW,229,5.0,5.0,55,0.00,,,0.05,Wunderground v.1.13,2013-01-09 18:30:00,
2013-01-09 12:35:00,38.9,24.1,30.15,SSW,209,5.0,5.0,55,0.00,,,0.05,Wunderground v.1.13,2013-01-09 18:35:00,
2013-01-09 12:40:00,39.2,23.9,30.15,WSW,253,5.0,13.0,54,0.00,,,0.05,Wunderground v.1.13,2013-01-09 18:40:00,
2013-01-09 12:45:00,39.2,23.9,30.15,SW,236,6.0,6.0,54,0.04,,,0.06,Wunderground v.1.13,2013-01-09 18:45:00,
2013-01-09 12:50:00,39.2,23.0,30.16,WSW,258,8.0,8.0,52,0.04,,,0.06,Wunderground v.1.13,2013-01-09 18:50:00,
2013-01-09 12:55:00,39.2,23.9,30.16,WSW,254,7.0,7.0,54,0.04,,,0.06,Wunderground v.1.13,2013-01-09 18:55:00,
2013-01-09 13:00:00,38.9,24.5,30.16,WSW,244,5.0,13.0,56,0.00,,,0.07,Wunderground v.1.13,2013-01-09 19:00:00,
2013-01-09 13:05:00,38.9,24.9,30.16,SW,224,4.0,16.0,57,0.00,,,0.07,Wunderground v.1.13,2013-01-09 19:05:00,
2013-01-09 13:15:00,39.2,25.2,30.16,SW,223,5.0,16.0,57,0.00,,,0.07,Wunderground v.1.13,2013-01-09 19:15:00,
2013-01-09 13:25:00,38.9,24.9,30.17,South,190,6.0,16.0,57,0.00,,,0.08,Wunderground v.1.13,2013-01-09 19:25:00,
2013-01-09 13:30:00,38.8,25.3,30.17,WSW,238,6.0,16.0,58,0.00,,,0.08,Wunderground v.1.13,2013-01-09 19:30:00,
2013-01-09 13:40:00,38.5,25.0,30.18,SW,236,6.0,16.0,58,0.04,,,0.09,Wunderground v.1.13,2013-01-09 19:40:00,
2013-01-09 13:50:00,38.5,25.0,30.19,WSW,242,7.0,7.0,58,0.04,,,0.09,Wunderground v.1.13,2013-01-09 19:50:00,
2013-01-09 13:55:00,38.5,25.4,30.19,WSW,250,6.0,16.0,59,0.00,,,0.09,Wunderground v.1.13,2013-01-09 19:55:00,
2013-01-09 14:00:00,38.5,25.4,30.19,West,261,6.0,16.0,59,0.00,,,0.10,Wunderground v.1.13,2013-01-09 20:00:00,
2013-01-09 14:05:00,38.2,25.1,30.20,South,178,7.0,7.0,59,0.00,,,0.10,Wunderground v.1.13,2013-01-09 20:05:00,
2013-01-09 14:15:00,38.2,25.1,30.20,West,259,7.0,21.0,59,0.00,,,0.10,Wunderground v.1.13,2013-01-09 20:15:00,
2013-01-09 14:25:00,38.3,25.2,30.21,WSW,257,6.0,6.0,59,0.00,,,0.11,Wunderground v.1.13,2013-01-09 20:25:00,
2013-01-09 14:30:00,38.2,24.7,30.21,WSW,256,6.0,6.0,58,0.00,,,0.11,Wunderground v.1.13,2013-01-09 20:30:00,
2013-01-09 14:35:00,38.2,24.7,30.22,WSW,254,7.0,7.0,58,0.00,,,0.11,Wunderground v.1.13,2013-01-09 20:35:00,
2013-01-09 14:45:00,38.2,24.3,30.22,WSW,244,8.0,8.0,57,0.00,,,0.12,Wunderground v.1.13,2013-01-09 20:45:00,
2013-01-09 14:50:00,38.0,24.5,30.23,WSW,253,8.0,8.0,58,0.00,,,0.12,Wunderground v.1.13,2013-01-09 20:50:00,
2013-01-09 14:55:00,37.6,24.1,30.23,West,260,7.0,15.0,58,0.00,,,0.12,Wunderground v.1.13,2013-01-09 20:55:00,
2013-01-09 15:00:00,37.5,24.5,30.23,WNW,285,8.0,15.0,59,0.00,,,0.12,Wunderground v.1.13,2013-01-09 21:00:00,
2013-01-09 15:05:00,37.3,24.3,30.24,West,272,9.0,9.0,59,0.00,,,0.12,Wunderground v.1.13,2013-01-09 21:05:00,
2013-01-09 15:15:00,37.0,24.4,30.24,West,275,8.0,19.0,60,0.00,,,0.12,Wunderground v.1.13,2013-01-09 21:15:00,
2013-01-09 15:20:00,36.9,24.7,30.26,West,264,8.0,19.0,61,0.00,,,0.12,Wunderground v.1.13,2013-01-09 21:20:00,
2013-01-09 15:30:00,37.0,24.4,30.26,SW,229,8.0,8.0,60,0.00,,,0.12,Wunderground v.1.13,2013-01-09 21:30:00,
2013-01-09 15:40:00,37.0,24.4,30.27,West,259,9.0,19.0,60,0.00,,,0.12,Wunderground v.1.13,2013-01-09 21:40:00,
2013-01-09 15:45:00,36.9,24.3,30.27,WSW,251,8.0,19.0,60,0.00,,,0.12,Wunderground v.1.13,2013-01-09 21:45:00,
2013-01-09 15:50:00,36.9,23.9,30.27,West,265,9.0,19.0,59,0.00,,,0.12,Wunderground v.1.13,2013-01-09 21:50:00,
2013-01-09 16:00:00,36.8,23.4,30.27,West,270,9.0,19.0,58,0.00,,,0.12,Wunderground v.1.13,2013-01-09 22:00:00,
2013-01-09 16:05:00,36.8,23.4,30.27,West,275,10.0,18.0,58,0.00,,,0.12,Wunderground v.1.13,2013-01-09 22:05:00,
2013-01-09 16:15:00,36.5,23.1,30.27,West,271,10.0,10.0,58,0.00,,,0.12,Wunderground v.1.13,2013-01-09 22:15:00,
2013-01-09 16:20:00,36.2,23.2,30.27,West,277,8.0,8.0,59,0.00,,,0.12,Wunderground v.1.13,2013-01-09 22:20:00,
2013-01-09 16:30:00,35.9,23.0,30.27,West,261,9.0,9.0,59,0.00,,,0.12,Wunderground v.1.13,2013-01-09 22:30:00,
2013-01-09 16:35:00,35.8,23.3,30.28,West,268,9.0,23.0,60,0.00,,,0.12,Wunderground v.1.13,2013-01-09 22:35:00,
2013-01-09 16:45:00,35.3,23.2,30.28,West,261,8.0,23.0,61,0.00,,,0.12,Wunderground v.1.13,2013-01-09 22:45:00,
2013-01-09 16:55:00,34.9,23.2,30.31,West,270,7.0,7.0,62,0.00,,,0.12,Wunderground v.1.13,2013-01-09 22:55:00,
2013-01-09 17:05:00,34.3,23.0,30.31,WNW,284,5.0,5.0,63,0.00,,,0.12,Wunderground v.1.13,2013-01-09 23:05:00,
2013-01-09 17:15:00,34.1,22.4,30.31,West,279,6.0,14.0,62,0.00,,,0.12,Wunderground v.1.13,2013-01-09 23:15:00,
2013-01-09 17:25:00,34.1,22.4,30.32,West,276,6.0,14.0,62,0.00,,,0.12,Wunderground v.1.13,2013-01-09 23:25:00,
2013-01-09 17:30:00,34.1,22.4,30.32,West,265,6.0,6.0,62,0.00,,,0.12,Wunderground v.1.13,2013-01-09 23:30:00,
2013-01-09 17:40:00,33.8,22.1,30.32,West,281,3.0,13.0,62,0.00,,,0.12,Wunderground v.1.13,2013-01-09 23:40:00,
2013-01-09 17:45:00,33.5,22.2,30.32,West,271,3.0,13.0,63,0.00,,,0.12,Wunderground v.1.13,2013-01-09 23:45:00,
2013-01-09 17:55:00,33.1,22.2,30.33,West,265,3.0,13.0,64,0.00,,,0.12,Wunderground v.1.13,2013-01-09 23:55:00,
2013-01-09 18:05:00,32.9,22.0,30.34,West,274,4.0,10.0,64,0.00,,,0.12,Wunderground v.1.13,2013-01-10 00:05:00,
2013-01-09 18:15:00,32.7,21.9,30.34,West,279,3.0,3.0,64,0.00,,,0.12,Wunderground v.1.13,2013-01-10 00:15:00,
2013-01-09 18:20:00,32.4,21.9,30.34,West,278,1.0,1.0,65,0.00,,,0.12,Wunderground v.1.13,2013-01-10 00:20:00,
2013-01-09 18:25:00,32.2,21.7,30.34,West,278,0.0,10.0,65,0.00,,,0.12,Wunderground v.1.13,2013-01-10 00:25:00,
2013-01-09 18:35:00,31.3,21.3,30.35,West,278,0.0,10.0,66,0.00,,,0.12,Wunderground v.1.13,2013-01-10 00:35:00,
2013-01-09 18:45:00,30.3,21.0,30.35,West,278,0.0,10.0,68,0.00,,,0.12,Wunderground v.1.13,2013-01-10 00:45:00,
2013-01-09 18:55:00,29.4,20.8,30.36,West,278,0.0,10.0,70,0.00,,,0.12,Wunderground v.1.13,2013-01-10 00:55:00,
2013-01-09 19:00:00,28.8,20.2,30.36,West,278,0.0,10.0,70,0.00,,,0.12,Wunderground v.1.13,2013-01-10 01:00:00,
2013-01-09 19:05:00,28.5,20.3,30.37,West,278,0.0,0.0,71,0.00,,,0.12,Wunderground v.1.13,2013-01-10 01:05:00,
2013-01-09 19:15:00,28.1,20.6,30.37,West,278,0.0,0.0,73,0.00,,,0.12,Wunderground v.1.13,2013-01-10 01:15:00,
2013-01-09 19:20:00,27.8,20.3,30.38,West,278,0.0,0.0,73,0.00,,,0.12,Wunderground v.1.13,2013-01-10 01:20:00,
2013-01-09 19:25:00,27.5,20.3,30.38,West,278,0.0,0.0,74,0.00,,,0.12,Wunderground v.1.13,2013-01-10 01:25:00,
2013-01-09 19:30:00,27.2,20.0,30.38,West,278,0.0,0.0,74,0.00,,,0.12,Wunderground v.1.13,2013-01-10 01:30:00,
2013-01-09 19:40:00,26.9,20.0,30.39,West,278,0.0,0.0,75,0.00,,,0.12,Wunderground v.1.13,2013-01-10 01:40:00,
2013-01-09 19:50:00,26.4,19.9,30.40,West,278,0.0,0.0,76,0.00,,,0.12,Wunderground v.1.13,2013-01-10 01:50:00,
2013-01-09 20:00:00,26.3,20.1,30.40,West,278,0.0,0.0,77,0.00,,,0.12,Wunderground v.1.13,2013-01-10 02:00:00,
2013-01-09 20:05:00,26.3,20.4,30.40,West,278,0.0,0.0,78,0.00,,,0.12,Wunderground v.1.13,2013-01-10 02:05:00,
2013-01-09 20:15:00,26.0,20.4,30.40,West,278,0.0,0.0,79,0.00,,,0.12,Wunderground v.1.13,2013-01-10 02:15:00,
2013-01-09 20:25:00,25.4,19.8,30.40,West,278,0.0,0.0,79,0.00,,,0.12,Wunderground v.1.13,2013-01-10 02:25:00,
2013-01-09 20:30:00,25.1,19.5,30.40,West,278,0.0,0.0,79,0.00,,,0.12,Wunderground v.1.13,2013-01-10 02:30:00,
2013-01-09 20:40:00,24.4,19.1,30.40,West,278,0.0,0.0,80,0.00,,,0.12,Wunderground v.1.13,2013-01-10 02:40:00,
2013-01-09 20:45:00,24.2,18.9,30.40,West,278,0.0,0.0,80,0.00,,,0.12,Wunderground v.1.13,2013-01-10 02:45:00,
2013-01-09 20:55:00,23.8,19.1,30.40,West,278,0.0,0.0,82,0.00,,,0.12,Wunderground v.1.13,2013-01-10 02:55:00,
2013-01-09 21:00:00,23.6,18.9,30.40,West,278,0.0,0.0,82,0.00,,,0.12,Wunderground v.1.13,2013-01-10 03:00:00,
2013-01-09 21:05:00,23.6,19.2,30.40,West,278,0.0,0.0,83,0.00,,,0.12,Wunderground v.1.13,2013-01-10 03:05:00,
2013-01-09 21:15:00,23.5,19.1,30.40,West,278,0.0,0.0,83,0.00,,,0.12,Wunderground v.1.13,2013-01-10 03:15:00,
2013-01-09 21:20:00,23.3,19.2,30.39,West,278,0.0,0.0,84,0.00,,,0.12,Wunderground v.1.13,2013-01-10 03:20:00,
2013-01-09 21:25:00,23.2,19.1,30.39,West,278,0.0,0.0,84,0.00,,,0.12,Wunderground v.1.13,2013-01-10 03:25:00,
2013-01-09 21:35:00,23.2,19.4,30.39,West,278,0.0,0.0,85,0.00,,,0.12,Wunderground v.1.13,2013-01-10 03:35:00,
2013-01-09 21:40:00,23.2,19.4,30.39,West,278,0.0,0.0,85,0.00,,,0.12,Wunderground v.1.13,2013-01-10 03:40:00,
2013-01-09 21:50:00,22.9,19.1,30.37,West,278,0.0,0.0,85,0.00,,,0.12,Wunderground v.1.13,2013-01-10 03:50:00,
2013-01-09 22:00:00,22.9,19.1,30.37,West,278,0.0,0.0,85,0.00,,,0.12,Wunderground v.1.13,2013-01-10 04:00:00,
2013-01-09 22:05:00,22.9,19.1,30.36,West,278,0.0,0.0,85,0.00,,,0.12,Wunderground v.1.13,2013-01-10 04:05:00,
2013-01-09 22:15:00,22.7,18.6,30.36,West,278,0.0,0.0,84,0.00,,,0.12,Wunderground v.1.13,2013-01-10 04:15:00,
2013-01-09 22:20:00,22.5,18.4,30.36,West,278,0.0,0.0,84,0.00,,,0.12,Wunderground v.1.13,2013-01-10 04:20:00,
2013-01-09 22:30:00,22.2,18.4,30.36,West,278,0.0,0.0,85,0.00,,,0.12,Wunderground v.1.13,2013-01-10 04:30:00,
2013-01-09 22:40:00,22.1,18.3,30.36,West,278,0.0,0.0,85,0.00,,,0.12,Wunderground v.1.13,2013-01-10 04:40:00,
2013-01-09 22:50:00,21.9,18.4,30.35,West,278,0.0,0.0,86,0.00,,,0.12,Wunderground v.1.13,2013-01-10 04:50:00,
2013-01-09 23:00:00,21.9,18.4,30.35,West,278,0.0,0.0,86,0.00,,,0.12,Wunderground v.1.13,2013-01-10 05:00:00,
2013-01-09 23:05:00,22.4,18.8,30.36,West,278,0.0,0.0,86,0.00,,,0.12,Wunderground v.1.13,2013-01-10 05:05:00,
2013-01-09 23:15:00,22.5,18.9,30.36,West,278,0.0,0.0,86,0.00,,,0.12,Wunderground v.1.13,2013-01-10 05:15:00,
2013-01-09 23:20:00,23.3,20.0,30.38,SW,234,0.0,0.0,87,0.00,,,0.12,Wunderground v.1.13,2013-01-10 05:20:00,
2013-01-09 23:25:00,24.1,20.5,30.38,SW,234,0.0,0.0,86,0.00,,,0.12,Wunderground v.1.13,2013-01-10 05:25:00,
2013-01-09 23:30:00,24.2,20.1,30.38,SW,234,0.0,0.0,84,0.00,,,0.12,Wunderground v.1.13,2013-01-10 05:30:00,
2013-01-09 23:35:00,24.2,20.1,30.39,SW,234,0.0,0.0,84,0.00,,,0.12,Wunderground v.1.13,2013-01-10 05:35:00,
2013-01-09 23:45:00,24.2,19.8,30.39,SW,234,0.0,0.0,83,0.00,,,0.12,Wunderground v.1.13,2013-01-10 05:45:00,
2013-01-09 23:50:00,24.4,20.0,30.40,SW,234,0.0,0.0,83,0.00,,,0.12,Wunderground v.1.13,2013-01-10 05:50:00,